,,,PA_Meas_PMT16A,,PR_Meas_QMR101_102,,RH_Meas_QMH101,,SR_Meas_QMS101,,TA_Meas_QMH101,,GenWind,,GenWind,
date,time,status,PA,status,PR,status,RH,status,SR,status,TA,status,DirAvg,status,SpdAvg,
2012-01-15, 00:00:04,VALID,1008.46,VALID,0,VALID,104,VALID,0,VALID,24.0253,VALID,88,VALID,0.739453,
2012-01-15, 00:01:04,VALID,1008.44,VALID,0,VALID,104,VALID,0,VALID,24.0253,VALID,78,VALID,0.628906,
2012-01-15, 00:02:04,VALID,1008.43,VALID,0,VALID,104,VALID,0,VALID,24.0253,VALID,70,VALID,0.534375,
2012-01-15, 00:03:04,VALID,1008.42,VALID,0,VALID,104,VALID,0,VALID,24.0253,VALID,93,VALID,1.11602,
2012-01-15, 00:04:04,VALID,1008.38,VALID,0,VALID,104,VALID,0,VALID,24.0058,VALID,75,VALID,0.945703,
2012-01-15, 00:05:04,VALID,1008.37,VALID,0,VALID,104,VALID,0,VALID,24.0058,VALID,88,VALID,1.37695,
2012-01-15, 00:06:04,VALID,1008.35,VALID,0,VALID,104,VALID,0,VALID,24.0058,VALID,81,VALID,1.20898,
2012-01-15, 00:07:04,VALID,1008.32,VALID,0,VALID,104,VALID,0,VALID,24.0058,VALID,98,VALID,1.06484,
2012-01-15, 00:08:04,VALID,1008.32,VALID,0,VALID,104,VALID,0,VALID,24.0058,VALID,73,VALID,0.869141,
2012-01-15, 00:09:04,VALID,1008.3,VALID,0,VALID,104,VALID,0,VALID,24.0058,VALID,81,VALID,0.819141,
2012-01-15, 00:10:04,VALID,1008.31,VALID,0,VALID,104,VALID,0,VALID,24.0058,VALID,66,VALID,0.591406,
2012-01-15, 00:11:04,VALID,1008.3,VALID,0,VALID,104,VALID,0,VALID,23.9863,VALID,66,VALID,0.282422,
2012-01-15, 00:12:04,VALID,1008.3,VALID,0,VALID,104,VALID,0,VALID,23.9863,VALID,75,VALID,0.924609,
2012-01-15, 00:13:04,VALID,1008.26,VALID,0,VALID,104,VALID,0,VALID,24.0076,VALID,83,VALID,1.0918,
2012-01-15, 00:14:04,VALID,1008.22,VALID,0,VALID,104,VALID,0,VALID,23.9863,VALID,62,VALID,0.864453,
2012-01-15, 00:15:04,VALID,1008.19,VALID,0,VALID,104,VALID,0,VALID,23.9863,VALID,60,VALID,1.08125,
2012-01-15, 00:16:04,VALID,1008.2,VALID,0,VALID,104,VALID,0,VALID,23.9863,VALID,79,VALID,0.546484,
2012-01-15, 00:17:04,VALID,1008.22,VALID,0,VALID,104,VALID,0,VALID,23.9668,VALID,74,VALID,0.882813,
2012-01-15, 00:18:04,VALID,1008.17,VALID,0,VALID,104,VALID,0,VALID,23.9668,VALID,73,VALID,0.312109,
2012-01-15, 00:19:04,VALID,1008.16,VALID,0,VALID,104,VALID,0,VALID,23.9863,VALID,73,VALID,0.562109,
2012-01-15, 00:20:04,VALID,1008.16,VALID,0,VALID,104,VALID,0,VALID,23.9668,VALID,73,VALID,0.585547,
2012-01-15, 00:21:04,VALID,1008.12,VALID,0,VALID,104,VALID,0,VALID,23.9473,VALID,60,VALID,0.760938,
2012-01-15, 00:22:04,VALID,1008.12,VALID,0,VALID,104,VALID,0.112112,VALID,23.965,VALID,58,VALID,0.558203,
2012-01-15, 00:23:04,VALID,1008.1,VALID,0,VALID,104,VALID,0,VALID,23.9863,VALID,81,VALID,0.636328,
2012-01-15, 00:24:04,VALID,1008.09,VALID,0,VALID,104,VALID,0.112112,VALID,23.965,VALID,82,VALID,0.490234,
2012-01-15, 00:25:04,VALID,1008.08,VALID,0,VALID,104,VALID,0,VALID,23.9668,VALID,72,VALID,0.585156,
2012-01-15, 00:26:04,VALID,1008.04,VALID,0,VALID,104,VALID,0,VALID,23.965,VALID,65,VALID,0.745703,
2012-01-15, 00:27:04,VALID,1008.04,VALID,0,VALID,104,VALID,0,VALID,23.965,VALID,72,VALID,0.694531,
2012-01-15, 00:28:04,VALID,1007.99,VALID,0,VALID,104,VALID,0.112112,VALID,23.9668,VALID,67,VALID,0.626172,
2012-01-15, 00:29:04,VALID,1007.96,VALID,0,VALID,104,VALID,0,VALID,23.9455,VALID,72,VALID,0.886328,
2012-01-15, 00:30:04,VALID,1007.95,VALID,0,VALID,104,VALID,0.112112,VALID,23.965,VALID,68,VALID,0.633984,
2012-01-15, 00:31:04,VALID,1007.92,VALID,0,VALID,104,VALID,0.112112,VALID,23.9455,VALID,63,VALID,0.439063,
2012-01-15, 00:32:04,VALID,1007.92,VALID,0,VALID,104,VALID,0,VALID,23.9455,VALID,63,VALID,0.550781,
2012-01-15, 00:33:04,VALID,1007.9,VALID,0,VALID,104,VALID,0.112112,VALID,23.9455,VALID,58,VALID,0.892578,
2012-01-15, 00:34:04,VALID,1007.91,VALID,0,VALID,104,VALID,0.112112,VALID,23.9455,VALID,75,VALID,0.842188,
2012-01-15, 00:35:04,VALID,1007.88,VALID,0,VALID,104,VALID,0,VALID,23.9455,VALID,73,VALID,0.753125,
2012-01-15, 00:36:04,VALID,1007.84,VALID,0,VALID,104,VALID,0,VALID,23.9455,VALID,81,VALID,0.710156,
2012-01-15, 00:37:04,VALID,1007.83,VALID,0,VALID,104,VALID,0,VALID,23.9455,VALID,55,VALID,0.827344,
2012-01-15, 00:38:04,VALID,1007.79,VALID,0,VALID,104,VALID,0,VALID,23.926,VALID,65,VALID,0.896484,
2012-01-15, 00:39:04,VALID,1007.78,VALID,0,VALID,104,VALID,0.112112,VALID,23.9065,VALID,68,VALID,0.689453,
2012-01-15, 00:40:04,VALID,1007.75,VALID,0,VALID,104,VALID,0.112112,VALID,23.9065,VALID,72,VALID,0.616797,
2012-01-15, 00:41:04,VALID,1007.73,VALID,0,VALID,104,VALID,0.112112,VALID,23.9065,VALID,87,VALID,0.815234,
2012-01-15, 00:42:04,VALID,1007.71,VALID,0,VALID,104,VALID,0.112112,VALID,23.926,VALID,87,VALID,0.725781,
2012-01-15, 00:43:04,VALID,1007.73,VALID,0,VALID,104,VALID,0,VALID,23.9065,VALID,72,VALID,0.569531,
2012-01-15, 00:44:04,VALID,1007.68,VALID,0,VALID,104,VALID,0,VALID,23.8871,VALID,64,VALID,0.774219,
2012-01-15, 00:45:04,VALID,1007.69,VALID,0,VALID,104,VALID,0,VALID,23.9065,VALID,76,VALID,0.822656,
2012-01-15, 00:46:04,VALID,1007.68,VALID,0,VALID,104,VALID,0,VALID,23.8871,VALID,75,VALID,0.733203,
2012-01-15, 00:47:04,VALID,1007.64,VALID,0,VALID,104,VALID,0.112112,VALID,23.9084,VALID,69,VALID,0.916016,
2012-01-15, 00:48:04,VALID,1007.65,VALID,0,VALID,104,VALID,0.112112,VALID,23.9084,VALID,67,VALID,0.864844,
2012-01-15, 00:49:04,VALID,1007.65,VALID,0,VALID,104,VALID,0.112112,VALID,23.9065,VALID,67,VALID,0.887109,
2012-01-15, 00:50:04,VALID,1007.64,VALID,0,VALID,104,VALID,0.112112,VALID,23.8871,VALID,65,VALID,0.50625,
2012-01-15, 00:51:04,VALID,1007.64,VALID,0,VALID,104,VALID,0.112112,VALID,23.8676,VALID,70,VALID,0.79375,
2012-01-15, 00:52:04,VALID,1007.62,VALID,0,VALID,104,VALID,0,VALID,23.8907,VALID,70,VALID,0.94375,
2012-01-15, 00:53:04,VALID,1007.6,VALID,0,VALID,104,VALID,0,VALID,23.8694,VALID,66,VALID,0.539453,
2012-01-15, 00:54:04,VALID,1007.6,VALID,0,VALID,104,VALID,0,VALID,23.8499,VALID,58,VALID,0.648828,
2012-01-15, 00:55:04,VALID,1007.62,VALID,0,VALID,104,VALID,0,VALID,23.8712,VALID,58,VALID,0.44375,
2012-01-15, 00:56:04,VALID,1007.61,VALID,0,VALID,104,VALID,0,VALID,23.8304,VALID,58,VALID,0.604688,
2012-01-15, 00:57:04,VALID,1007.62,VALID,0,VALID,104,VALID,0,VALID,23.8304,VALID,58,VALID,0.328125,
2012-01-15, 00:58:04,VALID,1007.61,VALID,0,VALID,104,VALID,0,VALID,23.8109,VALID,58,VALID,0.608594,
2012-01-15, 00:59:04,VALID,1007.62,VALID,0,VALID,104,VALID,0,VALID,23.8109,VALID,61,VALID,0.602344,
2012-01-15, 01:00:04,VALID,1007.62,VALID,0,VALID,104,VALID,0,VALID,23.8109,VALID,80,VALID,0.535937,
2012-01-15, 01:01:04,VALID,1007.61,VALID,0,VALID,104,VALID,0,VALID,23.8322,VALID,66,VALID,0.772656,
2012-01-15, 01:02:04,VALID,1007.62,VALID,0,VALID,104,VALID,0,VALID,23.8109,VALID,74,VALID,0.0332031,
2012-01-15, 01:03:04,VALID,1007.61,VALID,0,VALID,104,VALID,0,VALID,23.8109,VALID,72,VALID,0.0792969,
2012-01-15, 01:04:04,VALID,1007.62,VALID,0,VALID,104,VALID,0,VALID,23.8322,VALID,48,VALID,0.207422,
2012-01-15, 01:05:04,VALID,1007.61,VALID,0,VALID,104,VALID,0,VALID,23.8322,VALID,48,VALID,0.155469,
2012-01-15, 01:06:04,VALID,1007.61,VALID,0,VALID,104,VALID,0,VALID,23.8109,VALID,48,VALID,0.219922,
2012-01-15, 01:07:04,VALID,1007.61,VALID,0,VALID,104,VALID,0,VALID,23.8109,VALID,48,VALID,0.457031,
2012-01-15, 01:08:04,VALID,1007.57,VALID,0,VALID,104,VALID,0,VALID,23.8109,VALID,48,VALID,0.170703,
2012-01-15, 01:09:04,VALID,1007.56,VALID,0,VALID,104,VALID,0,VALID,23.8109,VALID,48,VALID,0.288672,
2012-01-15, 01:10:04,VALID,1007.57,VALID,0,VALID,104,VALID,0,VALID,23.8109,VALID,115,VALID,0.732031,
2012-01-15, 01:11:04,VALID,1007.54,VALID,0,VALID,104,VALID,0,VALID,23.8109,VALID,77,VALID,0.992188,
2012-01-15, 01:12:04,VALID,1007.54,VALID,0,VALID,104,VALID,0,VALID,23.8304,VALID,79,VALID,0.345313,
2012-01-15, 01:13:04,VALID,1007.53,VALID,0,VALID,104,VALID,0,VALID,23.8109,VALID,79,VALID,0.252734,
2012-01-15, 01:14:04,VALID,1007.52,VALID,0,VALID,104,VALID,0,VALID,23.8109,VALID,79,VALID,0.138672,
2012-01-15, 01:15:04,VALID,1007.51,VALID,0,VALID,104,VALID,0,VALID,23.8109,VALID,81,VALID,0.537109,
2012-01-15, 01:16:04,VALID,1007.51,VALID,0,VALID,104,VALID,0,VALID,23.8109,VALID,83,VALID,0.571484,
2012-01-15, 01:17:04,VALID,1007.52,VALID,0,VALID,104,VALID,0,VALID,23.8109,VALID,83,VALID,0.360547,
2012-01-15, 01:18:04,VALID,1007.52,VALID,0,VALID,104,VALID,0,VALID,23.7896,VALID,83,VALID,0.329297,
2012-01-15, 01:19:04,VALID,1007.53,VALID,0,VALID,104,VALID,0,VALID,23.8322,VALID,83,VALID,0.237109,
2012-01-15, 01:20:04,VALID,1007.51,VALID,0,VALID,104,VALID,0,VALID,23.8109,VALID,100,VALID,0.545313,
2012-01-15, 01:21:04,VALID,1007.53,VALID,0,VALID,104,VALID,0,VALID,23.8109,VALID,115,VALID,0.733984,
2012-01-15, 01:22:04,VALID,1007.52,VALID,0,VALID,104,VALID,0,VALID,23.8091,VALID,115,VALID,0.490625,
2012-01-15, 01:23:04,VALID,1007.51,VALID,0,VALID,104,VALID,0.112112,VALID,23.8286,VALID,115,VALID,0.171875,
2012-01-15, 01:24:04,VALID,1007.48,VALID,0,VALID,104,VALID,0.112112,VALID,23.7896,VALID,115,VALID,0.353516,
2012-01-15, 01:25:04,VALID,1007.5,VALID,0,VALID,104,VALID,0.112112,VALID,23.8091,VALID,115,VALID,0.405469,
2012-01-15, 01:26:04,VALID,1007.51,VALID,0,VALID,104,VALID,0,VALID,23.7914,VALID,115,VALID,0.25,
2012-01-15, 01:27:04,VALID,1007.51,VALID,0,VALID,104,VALID,0,VALID,23.8109,VALID,59,VALID,0.330859,
2012-01-15, 01:28:04,VALID,1007.5,VALID,0,VALID,104,VALID,0.112112,VALID,23.7896,VALID,59,VALID,0.405469,
2012-01-15, 01:29:04,VALID,1007.52,VALID,0,VALID,104,VALID,0,VALID,23.7896,VALID,59,VALID,0.384375,
2012-01-15, 01:30:04,VALID,1007.52,VALID,0,VALID,104,VALID,0.112112,VALID,23.8109,VALID,59,VALID,0.131641,
2012-01-15, 01:31:04,VALID,1007.52,VALID,0,VALID,104,VALID,0.112112,VALID,23.8109,VALID,59,VALID,0.382813,
2012-01-15, 01:32:04,VALID,1007.54,VALID,0,VALID,104,VALID,0,VALID,23.7896,VALID,59,VALID,0.0746094,
2012-01-15, 01:33:04,VALID,1007.53,VALID,0,VALID,104,VALID,0.112112,VALID,23.7896,VALID,59,VALID,0,
2012-01-15, 01:34:04,VALID,1007.55,VALID,0,VALID,104,VALID,0.112112,VALID,23.7701,VALID,59,VALID,0.200391,
2012-01-15, 01:35:04,VALID,1007.55,VALID,0,VALID,104,VALID,0.112112,VALID,23.7701,VALID,59,VALID,0.109375,
2012-01-15, 01:36:04,VALID,1007.58,VALID,0,VALID,104,VALID,0.112112,VALID,23.7701,VALID,58,VALID,0.294922,
2012-01-15, 01:37:04,VALID,1007.59,VALID,0,VALID,104,VALID,0,VALID,23.7525,VALID,58,VALID,0.211719,
2012-01-15, 01:38:04,VALID,1007.59,VALID,0,VALID,104,VALID,0,VALID,23.7525,VALID,58,VALID,0.191406,
2012-01-15, 01:39:04,VALID,1007.61,VALID,0,VALID,104,VALID,0,VALID,23.7525,VALID,58,VALID,0.0480469,
2012-01-15, 01:40:04,VALID,1007.61,VALID,0,VALID,104,VALID,0,VALID,23.7525,VALID,58,VALID,0.280469,
2012-01-15, 01:41:04,VALID,1007.59,VALID,0,VALID,104,VALID,0,VALID,23.733,VALID,58,VALID,0.0945313,
2012-01-15, 01:42:04,VALID,1007.62,VALID,0,VALID,104,VALID,0,VALID,23.7135,VALID,58,VALID,0,
2012-01-15, 01:43:04,VALID,1007.63,VALID,0,VALID,104,VALID,0,VALID,23.7135,VALID,58,VALID,0,
2012-01-15, 01:44:04,VALID,1007.63,VALID,0,VALID,104,VALID,0,VALID,23.694,VALID,58,VALID,0.0238281,
2012-01-15, 01:45:04,VALID,1007.64,VALID,0,VALID,104,VALID,0,VALID,23.7153,VALID,58,VALID,0,
2012-01-15, 01:46:04,VALID,1007.66,VALID,0,VALID,104,VALID,0,VALID,23.7153,VALID,58,VALID,0.136328,
2012-01-15, 01:47:04,VALID,1007.62,VALID,0,VALID,104,VALID,0,VALID,23.6745,VALID,58,VALID,0,
2012-01-15, 01:48:04,VALID,1007.61,VALID,0,VALID,104,VALID,0,VALID,23.694,VALID,58,VALID,0.0257812,
2012-01-15, 01:49:04,VALID,1007.61,VALID,0,VALID,104,VALID,0,VALID,23.6745,VALID,58,VALID,0,
2012-01-15, 01:50:04,VALID,1007.59,VALID,0,VALID,104,VALID,0,VALID,23.694,VALID,58,VALID,0.0222656,
2012-01-15, 01:51:04,VALID,1007.59,VALID,0,VALID,104,VALID,0,VALID,23.694,VALID,58,VALID,0.0625,
2012-01-15, 01:52:04,VALID,1007.56,VALID,0,VALID,104,VALID,0,VALID,23.6958,VALID,58,VALID,0,
2012-01-15, 01:53:04,VALID,1007.57,VALID,0,VALID,104,VALID,0,VALID,23.6958,VALID,58,VALID,0.124219,
2012-01-15, 01:54:04,VALID,1007.57,VALID,0,VALID,104,VALID,0,VALID,23.6958,VALID,66,VALID,0.461719,
2012-01-15, 01:55:04,VALID,1007.57,VALID,0,VALID,104,VALID,0,VALID,23.694,VALID,66,VALID,0.242969,
2012-01-15, 01:56:04,VALID,1007.57,VALID,0,VALID,104,VALID,0,VALID,23.6958,VALID,66,VALID,0.173438,
2012-01-15, 01:57:04,VALID,1007.61,VALID,0,VALID,104,VALID,0,VALID,23.694,VALID,66,VALID,0.0757812,
2012-01-15, 01:58:04,VALID,1007.61,VALID,0,VALID,104,VALID,0,VALID,23.6745,VALID,66,VALID,0.292969,
2012-01-15, 01:59:04,VALID,1007.62,VALID,0,VALID,104,VALID,0,VALID,23.694,VALID,66,VALID,0.417188,
2012-01-15, 02:00:04,VALID,1007.64,VALID,0,VALID,104,VALID,0,VALID,23.7135,VALID,66,VALID,0.259375,
2012-01-15, 02:01:04,VALID,1007.67,VALID,0,VALID,104,VALID,0,VALID,23.7135,VALID,66,VALID,0.517187,
2012-01-15, 02:02:04,VALID,1007.67,VALID,0,VALID,104,VALID,0,VALID,23.7348,VALID,66,VALID,0.482812,
2012-01-15, 02:03:04,VALID,1007.67,VALID,0,VALID,104,VALID,0,VALID,23.7135,VALID,66,VALID,0.180859,
2012-01-15, 02:04:04,VALID,1007.7,VALID,0,VALID,104,VALID,0,VALID,23.733,VALID,66,VALID,0,
2012-01-15, 02:05:04,VALID,1007.71,VALID,0,VALID,104,VALID,0,VALID,23.7135,VALID,66,VALID,0.0597656,
2012-01-15, 02:06:04,VALID,1007.71,VALID,0,VALID,104,VALID,0,VALID,23.7135,VALID,66,VALID,0.0222656,
2012-01-15, 02:07:04,VALID,1007.73,VALID,0,VALID,104,VALID,0,VALID,23.733,VALID,66,VALID,0.371875,
2012-01-15, 02:08:04,VALID,1007.75,VALID,0,VALID,104,VALID,0,VALID,23.733,VALID,66,VALID,0.142578,
2012-01-15, 02:09:04,VALID,1007.75,VALID,0,VALID,104,VALID,0,VALID,23.7117,VALID,66,VALID,0.208984,
2012-01-15, 02:10:04,VALID,1007.77,VALID,0,VALID,104,VALID,0,VALID,23.733,VALID,66,VALID,0.180469,
2012-01-15, 02:11:04,VALID,1007.77,VALID,0,VALID,104,VALID,0,VALID,23.7135,VALID,66,VALID,0.247266,
2012-01-15, 02:12:04,VALID,1007.75,VALID,0,VALID,104,VALID,0,VALID,23.7135,VALID,66,VALID,0.201172,
2012-01-15, 02:13:04,VALID,1007.75,VALID,0,VALID,104,VALID,0,VALID,23.7135,VALID,66,VALID,0.559375,
2012-01-15, 02:14:04,VALID,1007.77,VALID,0,VALID,104,VALID,0,VALID,23.7135,VALID,56,VALID,0.5125,
2012-01-15, 02:15:04,VALID,1007.78,VALID,0,VALID,104,VALID,0,VALID,23.7348,VALID,56,VALID,0.429297,
2012-01-15, 02:16:04,VALID,1007.76,VALID,0,VALID,104,VALID,0,VALID,23.7135,VALID,56,VALID,0.472656,
2012-01-15, 02:17:04,VALID,1007.8,VALID,0,VALID,104,VALID,0,VALID,23.694,VALID,56,VALID,0.21875,
2012-01-15, 02:18:04,VALID,1007.81,VALID,0,VALID,104,VALID,0,VALID,23.694,VALID,56,VALID,0.210547,
2012-01-15, 02:19:04,VALID,1007.81,VALID,0,VALID,104,VALID,0,VALID,23.6745,VALID,56,VALID,0,
2012-01-15, 02:20:04,VALID,1007.82,VALID,0,VALID,104,VALID,0,VALID,23.6763,VALID,56,VALID,0,
2012-01-15, 02:21:04,VALID,1007.8,VALID,0,VALID,104,VALID,0,VALID,23.6763,VALID,56,VALID,0.00351562,
2012-01-15, 02:22:04,VALID,1007.79,VALID,0,VALID,104,VALID,0,VALID,23.6356,VALID,56,VALID,0.0832031,
2012-01-15, 02:23:04,VALID,1007.78,VALID,0,VALID,104,VALID,0,VALID,23.6568,VALID,56,VALID,0.114453,
2012-01-15, 02:24:04,VALID,1007.78,VALID,0,VALID,104,VALID,0,VALID,23.6568,VALID,56,VALID,0,
2012-01-15, 02:25:04,VALID,1007.76,VALID,0,VALID,104,VALID,0.112112,VALID,23.655,VALID,56,VALID,0,
2012-01-15, 02:26:04,VALID,1007.76,VALID,0,VALID,104,VALID,0,VALID,23.655,VALID,56,VALID,0,
2012-01-15, 02:27:04,VALID,1007.76,VALID,0,VALID,104,VALID,0,VALID,23.6356,VALID,56,VALID,0.0804688,
2012-01-15, 02:28:04,VALID,1007.76,VALID,0,VALID,104,VALID,0,VALID,23.6143,VALID,56,VALID,0,
2012-01-15, 02:29:04,VALID,1007.78,VALID,0,VALID,104,VALID,0,VALID,23.6356,VALID,56,VALID,0,
2012-01-15, 02:30:04,VALID,1007.78,VALID,0,VALID,104,VALID,0.112112,VALID,23.6356,VALID,56,VALID,0.31875,
2012-01-15, 02:31:04,VALID,1007.77,VALID,0,VALID,104,VALID,0,VALID,23.6143,VALID,56,VALID,0.407422,
2012-01-15, 02:32:04,VALID,1007.78,VALID,0,VALID,104,VALID,0,VALID,23.6356,VALID,56,VALID,0.0652344,
2012-01-15, 02:33:04,VALID,1007.8,VALID,0,VALID,104,VALID,0.112112,VALID,23.6356,VALID,56,VALID,0.316016,
2012-01-15, 02:34:04,VALID,1007.83,VALID,0,VALID,104,VALID,0.112112,VALID,23.593,VALID,56,VALID,0.164844,
2012-01-15, 02:35:04,VALID,1007.84,VALID,0,VALID,104,VALID,0,VALID,23.6338,VALID,56,VALID,0.428125,
2012-01-15, 02:36:04,VALID,1007.86,VALID,0,VALID,104,VALID,0.112112,VALID,23.6338,VALID,58,VALID,0.544141,
2012-01-15, 02:37:04,VALID,1007.84,VALID,0,VALID,104,VALID,0,VALID,23.655,VALID,60,VALID,0.555469,
2012-01-15, 02:38:04,VALID,1007.86,VALID,0,VALID,104,VALID,0,VALID,23.6338,VALID,68,VALID,0.566797,
2012-01-15, 02:39:04,VALID,1007.86,VALID,0,VALID,104,VALID,0.112112,VALID,23.655,VALID,72,VALID,0.527734,
2012-01-15, 02:40:04,VALID,1007.86,VALID,0,VALID,104,VALID,0.112112,VALID,23.6338,VALID,72,VALID,0.446484,
2012-01-15, 02:41:04,VALID,1007.82,VALID,0,VALID,104,VALID,0.112112,VALID,23.655,VALID,72,VALID,0.429688,
2012-01-15, 02:42:04,VALID,1007.81,VALID,0,VALID,104,VALID,0,VALID,23.655,VALID,71,VALID,0.722266,
2012-01-15, 02:43:04,VALID,1007.79,VALID,0,VALID,104,VALID,0,VALID,23.655,VALID,71,VALID,0.532422,
2012-01-15, 02:44:04,VALID,1007.8,VALID,0,VALID,104,VALID,0.112112,VALID,23.6338,VALID,71,VALID,0.275391,
2012-01-15, 02:45:04,VALID,1007.78,VALID,0,VALID,104,VALID,0.112112,VALID,23.655,VALID,71,VALID,0.581641,
2012-01-15, 02:46:04,VALID,1007.78,VALID,0,VALID,104,VALID,0,VALID,23.6356,VALID,71,VALID,0.705078,
2012-01-15, 02:47:04,VALID,1007.79,VALID,0,VALID,104,VALID,0.112112,VALID,23.6143,VALID,77,VALID,0.55,
2012-01-15, 02:48:04,VALID,1007.79,VALID,0,VALID,104,VALID,0.112112,VALID,23.6356,VALID,85,VALID,0.53125,
2012-01-15, 02:49:04,VALID,1007.77,VALID,0,VALID,104,VALID,0,VALID,23.6143,VALID,65,VALID,0.716016,
2012-01-15, 02:50:04,VALID,1007.77,VALID,0,VALID,104,VALID,0,VALID,23.6161,VALID,63,VALID,0.534766,
2012-01-15, 02:51:04,VALID,1007.78,VALID,0,VALID,104,VALID,0.112112,VALID,23.6161,VALID,63,VALID,0.601563,
2012-01-15, 02:52:04,VALID,1007.76,VALID,0,VALID,104,VALID,0,VALID,23.5966,VALID,63,VALID,0.567578,
2012-01-15, 02:53:04,VALID,1007.74,VALID,0,VALID,104,VALID,0,VALID,23.5771,VALID,71,VALID,0.699609,
2012-01-15, 02:54:04,VALID,1007.76,VALID,0,VALID,104,VALID,0,VALID,23.5789,VALID,80,VALID,0.896094,
2012-01-15, 02:55:04,VALID,1007.76,VALID,0,VALID,104,VALID,0,VALID,23.5558,VALID,79,VALID,0.851563,
2012-01-15, 02:56:04,VALID,1007.74,VALID,0,VALID,104,VALID,0,VALID,23.5789,VALID,74,VALID,0.748438,
2012-01-15, 02:57:04,VALID,1007.77,VALID,0,VALID,104,VALID,0,VALID,23.5789,VALID,84,VALID,1.0582,
2012-01-15, 02:58:04,VALID,1007.74,VALID,0,VALID,104,VALID,0,VALID,23.5576,VALID,75,VALID,0.648047,
2012-01-15, 02:59:04,VALID,1007.72,VALID,0,VALID,104,VALID,0,VALID,23.5576,VALID,67,VALID,1.13984,
2012-01-15, 03:00:04,VALID,1007.72,VALID,0,VALID,104,VALID,0,VALID,23.5381,VALID,67,VALID,0.699609,
2012-01-15, 03:01:04,VALID,1007.7,VALID,0,VALID,104,VALID,0,VALID,23.5381,VALID,71,VALID,0.730078,
2012-01-15, 03:02:04,VALID,1007.71,VALID,0,VALID,104,VALID,0,VALID,23.5186,VALID,89,VALID,1.13086,
2012-01-15, 03:03:04,VALID,1007.67,VALID,0,VALID,104,VALID,0,VALID,23.5399,VALID,77,VALID,0.674609,
2012-01-15, 03:04:04,VALID,1007.69,VALID,0,VALID,104,VALID,0,VALID,23.5204,VALID,77,VALID,0.445313,
2012-01-15, 03:05:04,VALID,1007.69,VALID,0,VALID,104,VALID,0,VALID,23.5204,VALID,77,VALID,0.478125,
2012-01-15, 03:06:04,VALID,1007.68,VALID,0,VALID,104,VALID,0,VALID,23.4797,VALID,77,VALID,0.344531,
2012-01-15, 03:07:04,VALID,1007.7,VALID,0,VALID,104,VALID,0.112112,VALID,23.4974,VALID,77,VALID,0.0574219,
2012-01-15, 03:08:04,VALID,1007.69,VALID,0,VALID,104,VALID,0,VALID,23.4992,VALID,78,VALID,0.915625,
2012-01-15, 03:09:04,VALID,1007.69,VALID,0,VALID,104,VALID,0,VALID,23.4779,VALID,80,VALID,0.494531,
2012-01-15, 03:10:04,VALID,1007.68,VALID,0,VALID,104,VALID,0.112112,VALID,23.4779,VALID,80,VALID,0.807031,
2012-01-15, 03:11:04,VALID,1007.67,VALID,0,VALID,104,VALID,0,VALID,23.4779,VALID,80,VALID,0.514453,
2012-01-15, 03:12:04,VALID,1007.66,VALID,0,VALID,104,VALID,0.224224,VALID,23.4779,VALID,80,VALID,0.435547,
2012-01-15, 03:13:04,VALID,1007.68,VALID,0,VALID,104,VALID,0.112112,VALID,23.4779,VALID,80,VALID,0.121094,
2012-01-15, 03:14:04,VALID,1007.65,VALID,0,VALID,104,VALID,0.112112,VALID,23.4584,VALID,80,VALID,0.0527344,
2012-01-15, 03:15:04,VALID,1007.67,VALID,0,VALID,104,VALID,0.112112,VALID,23.4584,VALID,80,VALID,0,
2012-01-15, 03:16:04,VALID,1007.64,VALID,0,VALID,104,VALID,0.112112,VALID,23.4584,VALID,80,VALID,0.60625,
2012-01-15, 03:17:04,VALID,1007.63,VALID,0,VALID,104,VALID,0,VALID,23.4389,VALID,88,VALID,0.495313,
2012-01-15, 03:18:04,VALID,1007.6,VALID,0,VALID,104,VALID,0.112112,VALID,23.4797,VALID,97,VALID,0.452734,
2012-01-15, 03:19:04,VALID,1007.61,VALID,0,VALID,104,VALID,0.112112,VALID,23.4602,VALID,97,VALID,0.656641,
2012-01-15, 03:20:04,VALID,1007.65,VALID,0,VALID,104,VALID,0,VALID,23.4389,VALID,97,VALID,0.262109,
2012-01-15, 03:21:04,VALID,1007.65,VALID,0,VALID,104,VALID,0.112112,VALID,23.4407,VALID,97,VALID,0.223047,
2012-01-15, 03:22:04,VALID,1007.61,VALID,0,VALID,104,VALID,0,VALID,23.4212,VALID,97,VALID,0.285937,
2012-01-15, 03:23:04,VALID,1007.62,VALID,0,VALID,104,VALID,0,VALID,23.4017,VALID,97,VALID,0.347656,
2012-01-15, 03:24:04,VALID,1007.63,VALID,0,VALID,104,VALID,0,VALID,23.423,VALID,97,VALID,0.442578,
2012-01-15, 03:25:04,VALID,1007.65,VALID,0,VALID,104,VALID,0,VALID,23.423,VALID,97,VALID,0.465625,
2012-01-15, 03:26:04,VALID,1007.64,VALID,0,VALID,104,VALID,0,VALID,23.3823,VALID,97,VALID,0.0972656,
2012-01-15, 03:27:04,VALID,1007.66,VALID,0,VALID,104,VALID,0,VALID,23.4035,VALID,97,VALID,0.355078,
2012-01-15, 03:28:04,VALID,1007.66,VALID,0,VALID,104,VALID,0,VALID,23.423,VALID,97,VALID,0.352734,
2012-01-15, 03:29:04,VALID,1007.66,VALID,0,VALID,104,VALID,0,VALID,23.4035,VALID,97,VALID,0.225781,
2012-01-15, 03:30:04,VALID,1007.63,VALID,0,VALID,104,VALID,0,VALID,23.3628,VALID,97,VALID,0.00117188,
2012-01-15, 03:31:04,VALID,1007.65,VALID,0,VALID,104,VALID,0,VALID,23.3628,VALID,97,VALID,0,
2012-01-15, 03:32:04,VALID,1007.61,VALID,0,VALID,104,VALID,0,VALID,23.3628,VALID,97,VALID,0.2625,
2012-01-15, 03:33:04,VALID,1007.62,VALID,0,VALID,104,VALID,0,VALID,23.384,VALID,95,VALID,0.474219,
2012-01-15, 03:34:04,VALID,1007.62,VALID,0,VALID,104,VALID,0,VALID,23.3645,VALID,92,VALID,0.427344,
2012-01-15, 03:35:04,VALID,1007.63,VALID,0,VALID,104,VALID,0,VALID,23.3645,VALID,92,VALID,0.245312,
2012-01-15, 03:36:04,VALID,1007.62,VALID,0,VALID,104,VALID,0,VALID,23.3645,VALID,92,VALID,0.13125,
2012-01-15, 03:37:04,VALID,1007.62,VALID,0,VALID,104,VALID,0,VALID,23.3628,VALID,92,VALID,0.15,
2012-01-15, 03:38:04,VALID,1007.64,VALID,0,VALID,104,VALID,0,VALID,23.3645,VALID,92,VALID,0.361719,
2012-01-15, 03:39:04,VALID,1007.62,VALID,0,VALID,104,VALID,0,VALID,23.3645,VALID,92,VALID,0.387109,
2012-01-15, 03:40:04,VALID,1007.6,VALID,0,VALID,104,VALID,0,VALID,23.3645,VALID,92,VALID,0.419141,
2012-01-15, 03:41:04,VALID,1007.6,VALID,0,VALID,104,VALID,0,VALID,23.3645,VALID,92,VALID,0.395703,
2012-01-15, 03:42:04,VALID,1007.63,VALID,0,VALID,104,VALID,0,VALID,23.3451,VALID,92,VALID,0.251563,
2012-01-15, 03:43:04,VALID,1007.63,VALID,0,VALID,104,VALID,0,VALID,23.3238,VALID,92,VALID,0.212109,
2012-01-15, 03:44:04,VALID,1007.65,VALID,0,VALID,104,VALID,0,VALID,23.3451,VALID,92,VALID,0,
2012-01-15, 03:45:04,VALID,1007.65,VALID,0,VALID,104,VALID,0,VALID,23.3238,VALID,92,VALID,0.250781,
2012-01-15, 03:46:04,VALID,1007.67,VALID,0,VALID,104,VALID,0,VALID,23.3256,VALID,92,VALID,0,
2012-01-15, 03:47:04,VALID,1007.63,VALID,0,VALID,104,VALID,0,VALID,23.2848,VALID,92,VALID,0,
2012-01-15, 03:48:04,VALID,1007.69,VALID,0,VALID,104,VALID,0,VALID,23.2848,VALID,92,VALID,0.186328,
2012-01-15, 03:49:04,VALID,1007.68,VALID,0,VALID,104,VALID,0,VALID,23.2848,VALID,92,VALID,0.142188,
2012-01-15, 03:50:04,VALID,1007.65,VALID,0,VALID,104,VALID,0,VALID,23.2866,VALID,92,VALID,0.00234375,
2012-01-15, 03:51:04,VALID,1007.66,VALID,0,VALID,104,VALID,0,VALID,23.2866,VALID,92,VALID,0,
2012-01-15, 03:52:04,VALID,1007.65,VALID,0,VALID,104,VALID,0.112112,VALID,23.2671,VALID,92,VALID,0,
2012-01-15, 03:53:04,VALID,1007.65,VALID,0,VALID,104,VALID,0,VALID,23.2671,VALID,92,VALID,0,